Erie, PA

10:03 AM EST on February 07, 2016 (GMT -0500)
Erie International

Weather History for KERI - August, 2013

Change the Weather History Date:

Thursday, August 8, 2013

  Actual Average Record
Temperature  
Mean Temperature 77 °F 71 °F  
Max Temperature 82 °F 79 °F 93 °F (1918)
Min Temperature 71 °F 63 °F 51 °F (1975)
Degree Days  
Heating Degree Days 0 0  
Month to date heating degree days 3 0  
Since 1 June heating degree days 74 68  
Since 1 July heating degree days 6 7  
Cooling Degree Days 12 7  
Month to date cooling degree days 43 56  
Year to date cooling degree days 493 431  
Since 1 June cooling degree days 408 392  
Growing Degree Days 26 (Base 50)    
Moisture  
Dew Point 69 °F    
Average Humidity 80    
Maximum Humidity 90    
Minimum Humidity 69    
Precipitation  
Precipitation T in 0.11 in 1.93 in (1962)
Month to date precipitation 0.73 0.93  
Year to date precipitation 30.86 23.29  
Snow  
Snow 0.00 in 0.00 in - ()
Month to date snowfall 0.0 0.0  
Since 1 June snowfall 0.0 0.0  
Since 1 July snowfall 0.0 0.0  
Snow Depth 0.00 in    
Sea Level Pressure  
Sea Level Pressure 29.94 in    
Wind  
Wind Speed 5 mph (SW)    
Max Wind Speed 18 mph    
Max Gust Speed 23 mph    
Visibility 8 miles    
Events Rain , Thunderstorm    
T = Trace of Precipitation, MM = Missing Value Source: NWS Daily Summary

Daily Weather History Graph

Daily Weather History Graph

Search for Another Location

Airport or City:

Trip Planner

Search our weather history database for the weather conditions in past years. The results will help you decide how hot, cold, wet, or windy it might be!

Date:

Astronomy

Aug. 08, 2013 Rise Set
Actual Time 6:21 AM EDT 8:30 PM EDT
Civil Twilight 5:50 AM EDT 9:01 PM EDT
Nautical Twilight 5:12 AM EDT 9:39 PM EDT
Astronomical Twilight 4:30 AM EDT 10:20 PM EDT
Moon 8:09 AM EDT (8/8) 9:04 PM EDT (8/8)
Length of Visible Light 15h 10m
Length of Day
14h 09m
Waxing Crescent, 3% of the Moon is Illuminated
Aug 8
Waxing Crescent
Aug 14
First Quarter
Aug 20
Full
Aug 28
Last Quarter
Sep 5
New

Hourly Weather History & Observations

Time (EDT) Temp. Heat Index Dew Point Humidity Pressure Visibility Wind Dir Wind Speed Gust Speed Precip Events Conditions
12:51 AM 71.1 °F - 64.9 °F 81% 29.90 in 10.0 mi South 15.0 mph - 0.00 in Rain Light Rain
1:51 AM 73.0 °F - 64.9 °F 76% 29.90 in 10.0 mi South 15.0 mph - 0.00 in   Mostly Cloudy
2:19 AM 71.6 °F - 64.4 °F 78% 29.90 in 10.0 mi SSW 11.5 mph 23.0 mph N/A Thunderstorm Overcast
2:36 AM 71.6 °F - 64.4 °F 78% 29.91 in 10.0 mi South 10.4 mph 20.7 mph N/A   Mostly Cloudy
2:51 AM 72.0 °F - 64.9 °F 78% 29.89 in 10.0 mi South 10.4 mph - N/A   Mostly Cloudy
3:51 AM 72.0 °F - 66.0 °F 81% 29.91 in 10.0 mi South 10.4 mph - N/A   Mostly Cloudy
4:51 AM 73.0 °F - 66.9 °F 81% 29.91 in 10.0 mi South 9.2 mph - N/A   Overcast
5:13 AM 73.4 °F - 66.2 °F 78% 29.92 in 10.0 mi SSW 5.8 mph - N/A   Overcast
5:51 AM 72.0 °F - 68.0 °F 87% 29.92 in 9.0 mi South 5.8 mph - 0.00 in   Overcast
6:49 AM 71.6 °F - 68.0 °F 88% 29.94 in 8.0 mi Calm Calm - N/A   Overcast
6:51 AM 72.0 °F - 68.0 °F 87% 29.93 in 8.0 mi Calm Calm - N/A   Overcast
7:51 AM 73.0 °F - 69.1 °F 87% 29.94 in 7.0 mi South 3.5 mph - N/A   Overcast
8:51 AM 73.0 °F - 69.1 °F 87% 29.94 in 6.0 mi South 4.6 mph - N/A   Overcast
9:48 AM 75.2 °F - 69.8 °F 83% 29.95 in 6.0 mi SSE 5.8 mph - N/A   Haze
9:51 AM 75.0 °F - 70.0 °F 84% 29.94 in 6.0 mi SSE 4.6 mph - N/A   Haze
10:15 AM 75.2 °F - 69.8 °F 83% 29.95 in 6.0 mi SSW 4.6 mph - N/A   Haze
10:27 AM 75.2 °F - 69.8 °F 83% 29.95 in 7.0 mi SW 3.5 mph - N/A   Overcast
10:51 AM 75.9 °F - 70.0 °F 82% 29.95 in 6.0 mi South 5.8 mph - N/A   Haze
11:02 AM 77.0 °F - 69.8 °F 78% 29.96 in 7.0 mi South 4.6 mph - N/A   Overcast
11:25 AM 80.6 °F 84.6 °F 71.6 °F 74% 29.97 in 7.0 mi Calm Calm - N/A   Overcast
11:51 AM 78.1 °F - 71.1 °F 79% 29.96 in 7.0 mi Calm Calm - N/A   Overcast
12:22 PM 77.0 °F - 69.8 °F 78% 29.97 in 6.0 mi NW 8.1 mph - N/A   Haze
12:40 PM 77.0 °F - 69.8 °F 78% 29.97 in 6.0 mi NNW 6.9 mph - N/A   Haze
12:51 PM 75.9 °F - 70.0 °F 82% 29.95 in 6.0 mi NW 4.6 mph - N/A   Haze
1:26 PM 77.0 °F - 71.6 °F 83% 29.97 in 6.0 mi SW 5.8 mph - N/A   Haze
1:33 PM 78.8 °F - 69.8 °F 74% 29.97 in 6.0 mi SSW 10.4 mph - N/A   Haze
1:40 PM 78.8 °F - 69.8 °F 74% 29.96 in 8.0 mi SW 6.9 mph - N/A   Mostly Cloudy
1:51 PM 79.0 °F - 69.1 °F 72% 29.95 in 10.0 mi SSW 4.6 mph - N/A   Scattered Clouds
2:51 PM 81.0 °F 84.1 °F 69.1 °F 67% 29.94 in 10.0 mi Calm Calm - N/A   Mostly Cloudy
3:27 PM 80.6 °F 82.7 °F 66.2 °F 61% 29.95 in 10.0 mi NW 8.1 mph - N/A   Mostly Cloudy
3:42 PM 78.8 °F - 69.8 °F 74% 29.95 in 10.0 mi NW 6.9 mph - N/A   Scattered Clouds
3:51 PM 80.1 °F 82.9 °F 69.1 °F 69% 29.94 in 10.0 mi NW 6.9 mph - N/A   Partly Cloudy
4:51 PM 78.1 °F - 71.1 °F 79% 29.92 in 6.0 mi North 8.1 mph - N/A   Haze
5:14 PM 78.8 °F - 71.6 °F 78% 29.93 in 6.0 mi North 6.9 mph - N/A   Haze
5:35 PM 77.0 °F - 71.6 °F 83% 29.93 in 5.0 mi North 6.9 mph - N/A   Haze
5:51 PM 75.9 °F - 71.1 °F 85% 29.93 in 5.0 mi NNE 6.9 mph - N/A   Haze
6:25 PM 75.2 °F - 69.8 °F 83% 29.94 in 6.0 mi North 4.6 mph - N/A   Haze
6:51 PM 77.0 °F - 69.1 °F 76% 29.92 in 6.0 mi NNW 3.5 mph - N/A   Haze
7:51 PM 75.0 °F - 68.0 °F 79% 29.92 in 7.0 mi NW 3.5 mph - N/A   Mostly Cloudy
8:11 PM 75.2 °F - 69.8 °F 83% 29.93 in 7.0 mi Variable 3.5 mph - N/A   Overcast
8:51 PM 75.0 °F - 69.1 °F 82% 29.92 in 7.0 mi Calm Calm - N/A   Mostly Cloudy
9:51 PM 75.0 °F - 70.0 °F 84% 29.93 in 7.0 mi NW 3.5 mph - N/A   Overcast
10:51 PM 73.9 °F - 70.0 °F 87% 29.94 in 6.0 mi West 4.6 mph - N/A   Overcast
11:38 PM 73.4 °F - 69.8 °F 88% 29.94 in 9.0 mi SW 3.5 mph - N/A   Scattered Clouds
11:51 PM 73.0 °F - 70.0 °F 90% 29.93 in 8.0 mi WSW 3.5 mph - N/A   Scattered Clouds